Weather History for Garrison, ND

Change the Weather History Date:

Saturday, December 7, 2013

  Actual Average Record
Temperature  
Mean Temperature -15 °F -  
Max Temperature -9 °F 28 °F 45 °F (1999)
Min Temperature -21 °F 12 °F -21 °F (2013)
Degree Days  
Heating Degree Days 80    
Month to date heating degree days 426  
Moisture  
Dew Point -21 °F    
Average Humidity 75    
Maximum Humidity 81    
Minimum Humidity 69    
Precipitation  
Precipitation 0.00 in - - ()
Month to date precipitation 0.72  
Year to date precipitation 29.94  
Sea Level Pressure  
Sea Level Pressure 30.63 in    
Wind  
Wind Speed 11 mph (WNW)    
Max Wind Speed 16 mph    
Max Gust Speed 19 mph    
Averages and records for this station are not official NWS values.
T = Trace of Precipitation, MM = Missing Value Source: NWS Daily Summary

Daily Weather History Graph

Daily Weather History Graph

Search for Another Location

Airport:

Trip Planner

Search our weather history database for the weather conditions in past years. The results will help you decide how hot, cold, wet, or windy it might be!

Date:

Astronomy

Dec. 07, 2013 Rise Set
Actual Time 8:20 AM CST 4:54 PM CST
Civil Twilight 7:44 AM CST 5:29 PM CST
Nautical Twilight 7:05 AM CST 6:08 PM CST
Astronomical Twilight 6:28 AM CST 6:46 PM CST
Moon 11:51 AM CST (12/7) 10:55 PM CST (12/7)
Length of Visible Light 9h 45m
Length of Day
8h 33m
Waxing Crescent, 29% of the Moon is Illuminated
Dec 7
Waxing Crescent
Dec 9
First Quarter
Dec 17
Full
Dec 25
Last Quarter
Jan 1
New

Hourly Weather History & Observations

Time (CST) Temp. Windchill Dew Point Humidity Pressure Visibility Wind Dir Wind Speed Gust Speed Precip Events Conditions
12:52 AM -16.1 °F -35.0 °F -22.0 °F 74% 30.72 in - WNW 9.2 mph - N/A   Unknown
1:52 AM -17.0 °F -36.1 °F -23.1 °F 74% 30.71 in - NW 9.2 mph - N/A   Unknown
2:52 AM -18.0 °F -38.6 °F -23.1 °F 78% 30.71 in - WNW 10.4 mph - N/A   Unknown
3:52 AM -18.0 °F -40.7 °F -24.0 °F 74% 30.71 in - WNW 12.7 mph - N/A   Unknown
4:52 AM -18.9 °F -41.8 °F -24.0 °F 78% 30.70 in - WNW 12.7 mph - N/A   Unknown
5:52 AM -18.9 °F -40.8 °F -24.0 °F 78% 30.70 in - WNW 11.5 mph - N/A   Unknown
6:52 AM -20.0 °F -41.1 °F -25.1 °F 78% 30.69 in - NW 10.4 mph - N/A   Unknown
7:52 AM -20.0 °F -39.9 °F -25.1 °F 78% 30.69 in - WNW 9.2 mph - N/A   Unknown
8:52 AM -20.0 °F -39.9 °F -25.1 °F 78% 30.69 in - WNW 9.2 mph - N/A   Unknown
9:52 AM -18.0 °F -42.5 °F -24.0 °F 74% 30.70 in - WNW 15.0 mph - N/A   Unknown
10:52 AM -16.1 °F -36.2 °F -22.0 °F 74% 30.71 in - West 10.4 mph - N/A   Unknown
11:52 AM -14.1 °F -37.4 °F -20.0 °F 75% 30.68 in - West 15.0 mph - N/A   Unknown
12:52 PM -11.0 °F -32.7 °F -18.0 °F 71% 30.64 in - WNW 13.8 mph - N/A   Unknown
1:52 PM -9.9 °F -29.6 °F -16.1 °F 74% 30.63 in - West 11.5 mph - N/A   Unknown
2:52 PM -9.0 °F -26.4 °F -15.0 °F 75% 30.60 in - WNW 9.2 mph - N/A   Unknown
3:52 PM -9.9 °F -23.4 °F -16.1 °F 74% 30.58 in - WNW 5.8 mph - N/A   Unknown
4:52 PM -14.1 °F -31.3 °F -18.9 °F 79% 30.57 in - NNW 8.1 mph - N/A   Unknown
5:52 PM -13.0 °F -28.6 °F -18.0 °F 78% 30.55 in - WNW 6.9 mph - N/A   Unknown
6:52 PM -17.0 °F - -22.0 °F 78% 30.56 in - Calm Calm - N/A   Unknown
7:52 PM -17.0 °F - -20.9 °F 82% 30.54 in - Calm Calm - N/A   Unknown
8:52 PM -18.0 °F -28.5 °F -22.0 °F 82% 30.53 in - North 3.5 mph - N/A   Unknown
9:52 PM -16.1 °F - -20.0 °F 82% 30.50 in - Calm Calm - N/A   Unknown
10:52 PM -14.1 °F - -18.0 °F 82% 30.47 in - Calm Calm - N/A   Unknown
11:52 PM -11.0 °F -22.8 °F -14.1 °F 86% 30.44 in - WSW 4.6 mph - N/A   Unknown